Location: West Cummington
(42.4920°N, 72.9680°W)
Time: 02:59:44
(UTC-04:00)

Daily predictions for brighter satellites

Satellite Brightness Start Highest point End
(mag) Time Altitude Azimuth Time Altitude Azimuth Time Altitude Azimuth
SL-16 R/B 4.2 02:56:28 27° N 02:56:28 27° N 02:59:19 10° N
Resurs 1-4 Rocket 4.4 02:52:23 10° NNE 02:54:18 20° NE 02:54:18 20° NE
SL-16 R/B 4.3 02:54:10 10° N 02:58:36 23° NE 03:03:00 10° ESE
Cosmos 2227 Rocket 3.9 03:11:34 28° NE 03:11:34 28° NE 03:14:24 10° NE
ATLAS 2AS CENTAUR R/B 4.3 03:15:25 30° NNW 03:15:25 30° NNW 03:21:39 10° NNE
Cosmos 2297 Rocket 3.8 03:19:28 31° ENE 03:19:28 31° ENE 03:22:53 10° NE
Cosmos 2344 3.7 03:27:45 73° N 03:27:45 73° N 03:35:52 10° NE
Lacrosse 5 3.7 03:33:01 27° NE 03:33:01 27° NE 03:35:18 10° NE
BREEZE-M DEB (TANK) 3.9 03:37:52 74° NE 03:37:52 74° NE 03:50:19 10° ESE
Cosmos 2082 4.4 03:53:57 47° NNE 03:53:57 47° NNE 03:57:55 10° NNE
USA 215 3.1 03:55:11 10° SE 04:01:23 79° S 04:01:23 79° S
Cosmos 1727 Rocket 3.9 04:04:16 81° N 04:04:16 81° N 04:10:19 10° N
CENTAUR R/B 3.6 03:56:40 10° NNW 04:04:16 57° NE 04:12:25 10° SE
Cosmos 2058 Rocket 4.3 04:04:51 10° N 04:08:58 39° ENE 04:09:10 39° E
Tiangong 1 4.2 04:20:54 13° E 04:20:54 13° E 04:21:21 10° E
CZ-2C R/B 4.2 04:18:10 49° ESE 04:19:03 59° ENE 04:23:39 10° N
CZ-4B R/B 3.8 04:18:00 10° NNE 04:23:21 53° E 04:26:34 24° SSE
Meteor 1-15 Rocket 4.5 04:19:28 10° N 04:25:02 66° ENE 04:30:38 10° SSE
CZ-2D R/B 3.2 04:20:10 10° N 04:23:15 31° NNW 04:23:15 31° NNW
Cosmos 1898 Rocket 3.5 04:29:39 63° S 04:30:28 78° ESE 04:35:46 10° NNE
IRS-1C Rocket 4.1 04:25:33 10° NNE 04:30:52 77° ESE 04:32:18 49° S
NOSS 2-2 (E) 4.4 04:33:01 41° SE 04:33:40 44° ESE 04:38:11 10° NE
Cosmos 1153 Rocket 4.5 04:27:32 10° NNW 04:33:48 61° W 04:34:27 57° WSW
Resurs 1-4 Rocket 3.3 04:32:15 10° N 04:35:23 28° NW 04:35:23 28° NW
SL-16 R/B 4.4 04:41:34 14° NW 04:41:34 14° NW 04:42:31 10° NW
Lacrosse 5 rocket 3.9 04:37:13 13° NNW 04:37:56 13° N 04:40:10 10° NNE
Cosmos 724 4.3 04:36:28 47° WNW 04:38:07 63° WSW 04:44:14 10° SSE
Cosmos 1937 Rocket 3.8 04:36:06 36° S 04:38:08 65° ESE 04:43:23 10° NNE
Meteor 2-4 Rocket 3.7 04:38:08 53° SSW 04:39:32 75° W 04:45:30 10° N
Meteor 1-19 Rocket 4.3 04:40:30 52° WNW 04:40:30 52° WNW 04:45:42 10° N
SL-16 R/B 2.1 04:37:33 10° NNW 04:43:10 61° WSW 04:48:43 10° S
Cosmos 2098 Rocket 3.9 04:39:35 10° N 04:43:43 56° E 04:48:59 10° SSE
NOSS 3-4 (A) 4.3 04:43:54 34° WNW 04:44:49 36° NW 04:50:51 10° NNE
NOSS 3-4 (C) 4.2 04:43:59 34° WNW 04:44:55 36° NW 04:50:58 10° NNE
Meteor 2-9 Rocket 4.1 04:40:16 10° NNW 04:45:56 71° W 04:51:43 10° S
DELTA 2 R/B (1) 3.6 04:46:14 54° SW 04:47:11 64° S 04:52:42 10° E
Okean O Rocket 1.5 04:46:03 10° N 04:50:21 66° WNW 04:50:21 66° WNW
ARIANE 5 R/B 4.3 04:47:26 10° NNW 04:49:14 17° NW 04:49:14 17° NW
BREEZE-M DEB (TANK) 2.7 04:53:01 76° WNW 04:53:12 79° NNW 04:55:46 10° ENE
Cosmos 2227 Rocket 3.2 04:53:25 28° NW 04:53:25 28° NW 04:58:06 10° N
Meteor 1-23 Rocket 4.2 04:52:38 43° SW 04:54:18 61° WNW 04:59:59 10° N
Cosmos 1602 Rocket 4.2 04:53:26 10° S 04:57:46 55° E 05:02:04 10° NNE
PSLV R/B 3.9 04:56:01 10° NNE 05:00:20 63° E 05:04:33 10° S
Cosmos 1892 Rocket 3.9 05:01:48 46° WNW 05:01:48 46° WNW 05:05:54 10° N
Cosmos 2297 Rocket 3.0 05:01:19 32° WNW 05:01:45 32° NW 05:06:49 10° N
CZ-4B R/B 3.1 04:58:46 10° N 05:03:12 65° WNW 05:04:41 40° SW
Cosmos 2228 2.9 04:59:06 10° NNW 05:03:29 72° W 05:07:49 10° S
Cosmos 192 4.2 05:01:45 10° NNW 05:06:43 84° WSW 05:11:38 10° SSE
Lacrosse 5 3.3 05:12:13 20° NW 05:13:51 24° NNW 05:17:55 10° NNE
Cosmos 2100 Rocket 4.2 05:08:16 10° NNW 05:14:11 46° W 05:20:09 10° SSW
Okean 2 4.3 05:16:05 31° WNW 05:16:05 31° WNW 05:19:19 10° NNW
Cosmos 1802 Rocket 4.0 05:13:31 10° NNW 05:19:28 52° W 05:25:22 10° SSW
COBE Rocket 4.5 05:16:50 10° NNE 05:21:31 56° E 05:26:04 10° S
Cosmos 1812 Rocket 3.7 05:18:04 10° N 05:22:32 76° E 05:27:00 10° SSE
USA 129 4.0 05:21:25 10° SE 05:22:48 20° ENE 05:23:08 19° NE
Cosmos 1943 4.2 05:17:40 10° NNW 05:23:09 49° ENE 05:28:34 10° SE
Cosmos 2061 Rocket 4.3 05:17:17 10° NNW 05:23:14 44° W 05:29:13 10° SSW
Cosmos 1725 Rocket 3.9 05:17:57 10° N 05:24:17 85° W 05:30:31 10° S
Cosmos 1346 Rocket 4.5 05:27:35 18° NW 05:27:35 18° NW 05:29:34 10° NNW
ADEOS II 2.0 05:21:54 10° NNE 05:27:12 82° WNW 05:32:27 10° SSW
OAO 2 Rocket 4.4 05:26:15 21° SW 05:29:05 36° S 05:33:55 10° ESE
CZ-4B DEB 4.5 05:24:16 10° N 05:29:30 46° WNW 05:34:08 13° SW
Cosmos 1603 3.6 05:25:24 10° NNW 05:31:05 66° WSW 05:36:41 10° SSE
Cosmos 2263 Rocket 3.8 05:28:01 10° S 05:33:01 36° ESE 05:38:03 10° NE
Meteor 2-17 Rocket 4.5 05:27:52 10° N 05:34:03 89° ENE 05:40:13 10° S
SOZ 4.4 05:33:39 21° NW 05:35:00 50° NNE 05:37:14 10° ESE
Cosmos 990 Rocket 4.1 05:30:49 15° SW 05:35:05 53° WNW 05:40:14 10° N
AVUM R/B 2.8 05:36:10 10° NNW 05:38:32 61° ENE 05:40:44 10° SE
ADEOS Rocket 3.4 05:35:39 10° N 05:42:24 50° WNW 05:48:28 10° SW
Genesis I 3.6 05:40:15 21° WSW 05:42:35 46° NW 05:46:28 10° NNE
Cosmos 2016 Rocket 4.4 05:38:10 10° NNW 05:44:00 41° W 05:49:46 10° SSW
Cosmos 1048 Rocket 4.3 05:39:41 10° NNW 05:44:50 69° ENE 05:49:55 10° SSE
USA 215 4.4 05:40:31 10° S 05:45:20 22° WSW 05:48:46 15° W
Ariane Rocket 4.4 05:40:48 10° NNE 05:45:39 42° E 05:50:28 10° S
USA 116 4.3 05:42:20 10° S 05:47:08 48° W 05:51:26 10° NNW
Cosmos 1269 Rocket 4.0 05:46:05 10° NNW 05:51:24 90° WSW 05:56:41 10° SSE
EXPRESS MD2 4.4 05:51:20 17° W 05:53:42 36° SSW 05:59:40 10° SSE
Cosmos 1174 4.5 05:52:40 18° W 05:53:50 22° WSW 05:56:32 10° SSW
Thor Agena Rocket 4.3 05:49:17 10° SSW 05:53:57 31° W 05:58:38 10° NW
Cosmos 1766 4.0 05:50:17 10° N 05:54:16 59° E 05:58:11 10° SSE
Tiangong 1 1.3 05:52:48 19° W 05:54:39 51° SSW 05:57:37 10° ESE
CENTAUR R/B 3.5 05:47:41 10° NW 05:54:56 40° WSW 06:02:31 10° S
Cosmos 1515 4.4 05:51:40 10° SW 05:55:09 33° WNW 05:58:39 10° N
COSMO-SKYMED 1 3.0 05:52:37 10° SSE 05:56:55 67° ENE 06:01:15 10° N
Cosmos 1825 Rocket 3.7 05:52:49 10° S 05:57:12 80° E 06:01:35 10° N
Meteor 1-31 Rocket 2.8 05:54:54 10° N 05:58:47 62° WNW 06:02:40 10° SSW
Okean-O 3.2 05:57:01 10° N 06:01:06 37° WNW 06:05:11 10° SW
Cosmos 1340 2.7 05:58:12 10° SSW 06:01:55 55° WNW 06:05:41 10° N
Cosmos 372 Rocket 4.3 05:57:20 10° S 06:02:23 69° ESE 06:07:31 10° NNE
CZ-4B R/B 4.4 05:59:24 10° NNW 06:03:33 23° WNW 06:07:45 10° WSW
Cosmos 2123 Rocket 4.4 06:00:04 10° SW 06:05:50 41° WNW 06:11:39 10° N
Lacrosse 5 rocket 3.9 06:16:22 10° NNW 06:18:54 15° NNE 06:21:20 10° NE
Cosmos 1125 Rocket 3.6 06:14:02 10° SW 06:19:06 54° WNW 06:24:14 10° NNE
Cosmos 1805 4.3 06:15:18 10° N 06:19:09 51° ENE 06:22:58 10° SSE
Radarsat Rocket 4.1 06:14:18 10° NNE 06:20:59 79° WNW 06:26:57 10° SSW
